Regional Weather Roundup
Issued by NWS Cleveland, OH

Home | Current Version | Previous Version | Graphics & Text | Print | Product List | Glossary On
Versions: 1 2 3 4 5 6 7 8 9 10 11 12 13 14 15 16 17 18 19 20 21 22 23 24 25 26 27 28 29 30 31 32 33 34 35 36 37 38 39 40 41 42 43 44 45 46 47 48 49 50
000
ASUS41 KCLE 030410
RWRCLE
OHIO REGIONAL WEATHER ROUNDUP
NATIONAL WEATHER SERVICE CLEVELAND, OH
1200 AM EDT MON AUG 03 2015

NOTE: "FAIR" INDICATES FEW OR NO CLOUDS BELOW 12,000 FEET WITH NO
SIGNIFICANT WEATHER AND/OR OBSTRUCTIONS TO VISIBILITY.

OHZ001>008-015>018-024>027-034-035-043-044-030500-
   NORTHWEST OHIO

CITY           SKY/WX    TMP DP  RH WIND       PRES   REMARKS
DEFIANCE       MOCLDY    80  64  58 SW13G24   29.76R
FINDLAY        PTCLDY    77  62  59 SW15      29.78R
TOLEDO EXPRESS MOCLDY    78  63  59 SW21G28   29.74R
TOLEDO EXEC    MOCLDY    80  61  52 SW17G29   29.75R
LIMA           CLEAR     75  62  64 SW15G22   29.81S
$$

OHZ009>014-019>023-028>033-038-089-030500-
   NORTHEAST OHIO

CITY           SKY/WX    TMP DP  RH WIND       PRES   REMARKS
CLE-HOPKINS    MOCLDY    77  60  55 S18G29    29.77F
CLE-LAKEFRONT  MOCLDY    80  60  50 S25G37    29.72F
CUY CO. ARPT   NOT AVBL
LORAIN-ELYRIA  PTCLDY    76  59  55 SW14G24   29.77F
ASHTABULA      MOCLDY    77  61  57 SW18G30   29.75F
AKRON-CANTON   PTCLDY    75  61  61 SW17G23   29.84S
WOOSTER        CLEAR     71  61  70 S10       29.82F
MANSFIELD      CLEAR     74  61  63 S21G28    29.83F
YOUNGSTOWN     MOCLDY    75  63  66 SW15G24   29.81F
$$

OHZ042-051>053-060>062-070>072-077>081-030500-
  SOUTHWEST OHIO

CITY           SKY/WX    TMP DP  RH WIND       PRES   REMARKS
CINC-COVINGTON CLEAR     71  62  73 S7        29.89F
CINC-LUNKEN    CLEAR     67  64  90 CALM      29.89F
HAMILTON       CLEAR     73  61  65 S5        29.88F
DAYTON         CLEAR     75  61  61 SW13      29.87F
WRIGHT-PAT AFB CLEAR     73  62  68 S6        29.86F
DAYTON GENERAL CLEAR     69  60  73 S7        29.87F
WILMINGTON     CLEAR     68  60  75 S8        29.89F
$$

OHZ036-037-039>041-045>050-054>059-063>069-073>076-082>088-030500-
  CENTRAL AND SOUTHEAST OHIO

CITY           SKY/WX    TMP DP  RH WIND       PRES   REMARKS
COLUMBUS       FAIR      74  61  63 S7        29.86F
OSU AIRPORT    CLEAR     75  60  59 S12       29.86F
BOLTON FIELD   FAIR      70  63  78 SW13      29.87F
RICKENBACK AFB FAIR      70  62  75 S7        29.87S
NEWARK         CLEAR     71  62  73 SW5       29.86F
MARION         CLEAR     74  61  63 SW16      29.83F
LANCASTER      CLEAR     72  60  66 S7        29.88F
ZANESVILLE     CLEAR     70  60  70 S7        29.88F
NEW PHILLY     CLEAR     74  61  63 S8        29.86F
$$



USA.gov is the U.S. government's official web portal to all federal, state and local government web resources and services.